Location: B?dimalle
(17.1788°N, 80.5377°E)
Time: 05:33:33
(UTC+00:00)

Vanguard 1 - Pass Details

Date: 25 February 2026
Orbit: 653 x 3818 km, 34.2° (Epoch: 14 March)

Event Time Altitude Azimuth Distance (km) Brightness Sun altitude
Rises 13:11:20 0° 303° (WNW) 5,639 14.8 -7.5°
Reaches altitude 10° 13:14:26 10° 305° (NW) 4,972 14.4 -8.2°
Maximum altitude 13:30:37 73° 30° (NNE) 3,464 12.7 -12.1°
Enters shadow 13:53:44 11° 114° (ESE) 6,784 13.8 -17.6°
